User: anonymous   Login
Location: Arthez
(43.0833°N, 0.2500°W)
Time: 18:37:21
(UTC+00:00)
Language:

Milstar 3 Cent rocket - Orbit

View from above orbital plane
View from above orbital plane
View from above satellite
View from above satellite

Ground track
Ground track

The orbit data is extracted from the following two-line orbital elements,

1 25725U 99023B   22020.52121926  .00000089  00000-0  15307-3 0  9994
2 25725  28.3208  29.2439 2386697  27.4473 343.4039  9.67266721101197
Epoch (UTC): 20 January 2022 12:30:33
Eccentricity: 0.2386697
inclination: 28.3208°
perigee height: 706 km
apogee height: 5147 km
right ascension of ascending node: 29.2439°
argument of perigee: 27.4473°
revolutions per day: 9.67266721
mean anomaly at epoch: 343.4039°
orbit number at epoch: 10119

The dashed part of the orbit path shows where the satellite is in the earth's shadow,  

DLR